Pipestone, MN

4:42 AM CDT on October 15, 2019 (GMT -0500)
Pipestone Municipal

Weather History for KPQN - July, 2019

Change the Weather History Date:

Monday, July 22, 2019

  Actual Average Record
Temperature  
Mean Temperature 66 °F -  
Max Temperature 75 °F 80 °F 93 °F (2012)
Min Temperature 57 °F 60 °F 46 °F (2000)
Cooling Degree Days 1    
Growing Degree Days 16 (Base 50)    
Moisture  
Dew Point 54 °F    
Average Humidity 67    
Maximum Humidity 94    
Minimum Humidity 44    
Precipitation  
Precipitation 0.00 in - - ()
Sea Level Pressure  
Sea Level Pressure 30.28 in    
Wind  
Wind Speed 4 mph (North)    
Max Wind Speed 13 mph    
Max Gust Speed 17 mph    
Visibility 10 miles    
Events      
Averages and records for this station are not official NWS values.
T = Trace of Precipitation, MM = Missing Value Source: NWS Daily Summary

Daily Weather History Graph

Daily Weather History Graph

Search for Another Location

Airport or City:

Astronomy

Jul. 22, 2019 Rise Set
Actual Time 6:02 AM CDT 8:59 PM CDT
Civil Twilight 5:28 AM CDT 9:34 PM CDT
Nautical Twilight 4:44 AM CDT 10:17 PM CDT
Astronomical Twilight 3:53 AM CDT 11:08 PM CDT
Moon No Moon Rise 11:30 AM CDT (7/22)
Length of Visible Light 16h 05m
Length of Day
14h 57m
Waning Gibbous, 72% of the Moon is Illuminated
Jul 22
Waning Gibbous
Jul 24
Last Quarter
Jul 31
New
Aug 7
First Quarter
Aug 15
Full

Hourly Weather History & Observations

Time (CDT) Temp. Dew Point Humidity Pressure Visibility Wind Dir Wind Speed Gust Speed Precip Events Conditions
12:16 AM 62.6 °F 57.2 °F 82% 30.22 in 10.0 mi NNW 4.6 mph - N/A   Clear
12:35 AM 62.6 °F 57.2 °F 82% 30.22 in 10.0 mi Calm Calm - N/A   Clear
12:36 AM 62.6 °F 57.2 °F 82% 30.22 in 10.0 mi NW 3.5 mph - N/A   Clear
12:55 AM 60.8 °F 57.2 °F 88% 30.23 in 10.0 mi NNW 4.6 mph - N/A   Clear
12:59 AM 60.8 °F 57.2 °F 88% 30.23 in 10.0 mi NNW 5.8 mph - N/A   Clear
1:17 AM 60.8 °F 55.4 °F 82% 30.23 in 10.0 mi North 6.9 mph - N/A   Clear
1:36 AM 60.8 °F 55.4 °F 82% 30.23 in 10.0 mi Calm Calm - N/A   Clear
1:55 AM 60.8 °F 55.4 °F 82% 30.23 in 10.0 mi Calm Calm - N/A   Clear
1:56 AM 60.8 °F 55.4 °F 82% 30.23 in 10.0 mi Calm Calm - N/A   Clear
2:15 AM 60.8 °F 55.4 °F 82% 30.24 in 10.0 mi North 6.9 mph - N/A   Clear
2:37 AM 60.8 °F 57.2 °F 88% 30.24 in 10.0 mi NNW 4.6 mph - N/A   Clear
2:56 AM 60.8 °F 57.2 °F 88% 30.24 in 10.0 mi Calm Calm - N/A   Clear
3:15 AM 60.8 °F 55.4 °F 82% 30.24 in 10.0 mi Calm Calm - N/A   Clear
3:16 AM 60.8 °F 55.4 °F 82% 30.24 in 10.0 mi Calm Calm - N/A   Clear
3:35 AM 60.8 °F 55.4 °F 82% 30.24 in 10.0 mi Calm Calm - N/A   Clear
3:36 AM 60.8 °F 55.4 °F 82% 30.24 in 10.0 mi Calm Calm - N/A   Clear
3:58 AM 59.0 °F 55.4 °F 88% 30.24 in 10.0 mi Calm Calm - N/A   Clear
4:16 AM 59.0 °F 55.4 °F 88% 30.24 in 10.0 mi Calm Calm - N/A   Clear
4:35 AM 59.0 °F 55.4 °F 88% 30.25 in 10.0 mi Calm Calm - N/A   Clear
4:36 AM 59.0 °F 55.4 °F 88% 30.25 in 10.0 mi Calm Calm - N/A   Clear
4:55 AM 59.0 °F 55.4 °F 88% 30.25 in 10.0 mi Calm Calm - N/A   Clear
4:56 AM 59.0 °F 55.4 °F 88% 30.25 in 10.0 mi Calm Calm - N/A   Clear
5:15 AM 57.2 °F 55.4 °F 94% 30.26 in 10.0 mi Calm Calm - N/A   Clear
5:19 AM 57.2 °F 55.4 °F 94% 30.26 in 10.0 mi NW 3.5 mph - N/A   Clear
5:38 AM 57.2 °F 55.4 °F 94% 30.26 in 10.0 mi Calm Calm - N/A   Clear
5:56 AM 57.2 °F 55.4 °F 94% 30.26 in 10.0 mi Calm Calm - N/A   Clear
6:15 AM 57.2 °F 55.4 °F 94% 30.27 in 10.0 mi Calm Calm - N/A   Clear
6:16 AM 57.2 °F 55.4 °F 94% 30.27 in 10.0 mi Calm Calm - N/A   Clear
6:35 AM 57.2 °F 55.4 °F 94% 30.28 in 10.0 mi Calm Calm - N/A   Clear
6:58 AM 59.0 °F 55.4 °F 88% 30.28 in 10.0 mi Calm Calm - N/A   Clear
7:17 AM 59.0 °F 55.4 °F 88% 30.28 in 10.0 mi Calm Calm - N/A   Clear
7:36 AM 60.8 °F 55.4 °F 82% 30.29 in 10.0 mi Calm Calm - N/A   Clear
7:55 AM 60.8 °F 57.2 °F 88% 30.29 in 10.0 mi Calm Calm - N/A   Clear
7:56 AM 60.8 °F 57.2 °F 88% 30.29 in 10.0 mi Calm Calm - N/A   Clear
8:15 AM 62.6 °F 57.2 °F 82% 30.30 in 10.0 mi North 5.8 mph - N/A   Clear
8:37 AM 62.6 °F 57.2 °F 82% 30.30 in 10.0 mi North 8.1 mph - N/A   Clear
8:56 AM 64.4 °F 59.0 °F 83% 30.30 in 10.0 mi North 5.8 mph - N/A   Clear
9:15 AM 64.4 °F 57.2 °F 77% 30.30 in 10.0 mi NE 9.2 mph - N/A   Clear
9:16 AM 64.4 °F 57.2 °F 77% 30.30 in 10.0 mi NE 9.2 mph - N/A   Clear
9:35 AM 66.2 °F 55.4 °F 68% 30.31 in 10.0 mi NNE 8.1 mph - N/A   Clear
9:36 AM 66.2 °F 55.4 °F 68% 30.31 in 10.0 mi NE 9.2 mph - N/A   Clear
9:59 AM 66.2 °F 53.6 °F 64% 30.31 in 10.0 mi NNE 8.1 mph - N/A   Clear
10:16 AM 68.0 °F 53.6 °F 60% 30.31 in 10.0 mi NNE 10.4 mph - N/A   Clear
10:35 AM 69.8 °F 53.6 °F 56% 30.31 in 10.0 mi North 5.8 mph - N/A   Clear
10:36 AM 69.8 °F 53.6 °F 56% 30.31 in 10.0 mi NNE 8.1 mph - N/A   Clear
10:55 AM 69.8 °F 53.6 °F 56% 30.32 in 10.0 mi NE 10.4 mph 16.1 mph N/A   Clear
10:56 AM 69.8 °F 53.6 °F 56% 30.32 in 10.0 mi NE 12.7 mph 16.1 mph N/A   Clear
11:18 AM 69.8 °F 53.6 °F 56% 30.32 in 10.0 mi North 8.1 mph - N/A   Clear
11:36 AM 69.8 °F 51.8 °F 53% 30.32 in 10.0 mi NNE 10.4 mph 17.3 mph N/A   Clear
11:56 AM 69.8 °F 51.8 °F 53% 30.32 in 10.0 mi NNE 11.5 mph 17.3 mph N/A   Clear
12:15 PM 69.8 °F 51.8 °F 53% 30.33 in 10.0 mi NNE 8.1 mph - N/A   Clear
12:16 PM 69.8 °F 51.8 °F 53% 30.33 in 10.0 mi NNE 9.2 mph - N/A   Clear
12:35 PM 71.6 °F 51.8 °F 50% 30.33 in 10.0 mi NE 4.6 mph - N/A   Scattered Clouds
12:39 PM 71.6 °F 51.8 °F 50% 30.33 in 10.0 mi NNE 9.2 mph - N/A   Scattered Clouds
12:58 PM 71.6 °F 50.0 °F 46% 30.33 in 10.0 mi NE 9.2 mph - N/A   Scattered Clouds
1:15 PM 71.6 °F 51.8 °F 50% 30.32 in 10.0 mi East 8.1 mph - N/A   Clear
1:35 PM 71.6 °F 51.8 °F 50% 30.31 in 10.0 mi Calm Calm - N/A   Scattered Clouds
1:36 PM 71.6 °F 51.8 °F 50% 30.31 in 10.0 mi Calm Calm - N/A   Scattered Clouds
1:55 PM 71.6 °F 51.8 °F 50% 30.31 in 10.0 mi NNE 10.4 mph - N/A   Scattered Clouds
2:16 PM 71.6 °F 51.8 °F 50% 30.31 in 10.0 mi East 4.6 mph - N/A   Scattered Clouds
2:36 PM 73.4 °F 51.8 °F 47% 30.31 in 10.0 mi NNE 8.1 mph - N/A   Scattered Clouds
2:55 PM 73.4 °F 51.8 °F 47% 30.30 in 10.0 mi NE 8.1 mph - N/A   Clear
2:56 PM 73.4 °F 51.8 °F 47% 30.30 in 10.0 mi NE 8.1 mph - N/A   Clear
3:15 PM 73.4 °F 51.8 °F 47% 30.30 in 10.0 mi NE 9.2 mph - N/A   Clear
3:20 PM 73.4 °F 51.8 °F 47% 30.30 in 10.0 mi NNW 4.6 mph - N/A   Clear
3:36 PM 73.4 °F 50.0 °F 44% 30.30 in 10.0 mi North 8.1 mph - N/A   Clear
3:55 PM 73.4 °F 50.0 °F 44% 30.30 in 10.0 mi WNW 3.5 mph - N/A   Clear
4:15 PM 73.4 °F 51.8 °F 47% 30.29 in 10.0 mi North 5.8 mph - N/A   Scattered Clouds
4:16 PM 73.4 °F 51.8 °F 47% 30.29 in 10.0 mi NNW 4.6 mph - N/A   Scattered Clouds
4:35 PM 73.4 °F 51.8 °F 47% 30.29 in 10.0 mi North 6.9 mph - N/A   Scattered Clouds
4:57 PM 73.4 °F 51.8 °F 47% 30.28 in 10.0 mi NNW 6.9 mph - N/A   Clear
5:15 PM 75.2 °F 51.8 °F 44% 30.28 in 10.0 mi North 8.1 mph - N/A   Clear
5:35 PM 73.4 °F 51.8 °F 47% 30.28 in 10.0 mi North 5.8 mph - N/A   Clear
5:36 PM 75.2 °F 51.8 °F 44% 30.28 in 10.0 mi North 5.8 mph - N/A   Clear
5:55 PM 73.4 °F 51.8 °F 47% 30.27 in 10.0 mi NW 3.5 mph - N/A   Clear
5:56 PM 73.4 °F 51.8 °F 47% 30.27 in 10.0 mi NW 4.6 mph - N/A   Clear
6:19 PM 73.4 °F 51.8 °F 47% 30.27 in 10.0 mi NNW 5.8 mph - N/A   Clear
6:36 PM 73.4 °F 51.8 °F 47% 30.27 in 10.0 mi NNW 4.6 mph - N/A   Clear
6:55 PM 73.4 °F 51.8 °F 47% 30.27 in 10.0 mi North 5.8 mph - N/A   Clear
7:15 PM 73.4 °F 51.8 °F 47% 30.27 in 10.0 mi North 5.8 mph - N/A   Clear
7:16 PM 73.4 °F 51.8 °F 47% 30.27 in 10.0 mi North 5.8 mph - N/A   Clear
7:35 PM 73.4 °F 53.6 °F 50% 30.27 in 10.0 mi NNW 4.6 mph - N/A   Clear
7:39 PM 73.4 °F 53.6 °F 50% 30.27 in 10.0 mi NNW 5.8 mph - N/A   Clear
7:58 PM 71.6 °F 53.6 °F 53% 30.27 in 10.0 mi NNW 4.6 mph - N/A   Clear
8:16 PM - 55.4 °F N/A% - 10.0 mi North - - N/A   Clear
8:35 PM 69.8 °F 55.4 °F 60% 30.26 in 10.0 mi Calm Calm - N/A   Clear
8:36 PM 69.8 °F 55.4 °F 60% 30.26 in 10.0 mi Calm Calm - N/A   Clear
8:58 PM 69.8 °F 55.4 °F 60% 30.26 in 10.0 mi Calm Calm - N/A   Clear
9:17 PM 68.0 °F 55.4 °F 64% 30.26 in 10.0 mi Calm Calm - N/A   Clear
9:36 PM 66.2 °F 55.4 °F 68% 30.27 in 10.0 mi Calm Calm - N/A   Clear
9:55 PM 66.2 °F 55.4 °F 68% 30.28 in 10.0 mi Calm Calm - N/A   Clear
9:56 PM 66.2 °F 55.4 °F 68% 30.28 in 10.0 mi Calm Calm - N/A   Clear
10:15 PM 66.2 °F 55.4 °F 68% 30.28 in 10.0 mi Calm Calm - N/A   Clear
10:37 PM 64.4 °F 57.2 °F 77% 30.28 in 10.0 mi Calm Calm - N/A   Clear
10:56 PM 64.4 °F 55.4 °F 73% 30.28 in 10.0 mi Calm Calm - N/A   Clear
11:15 PM 64.4 °F 55.4 °F 73% 30.29 in 10.0 mi Calm Calm - N/A   Clear
11:16 PM 64.4 °F 55.4 °F 73% 30.29 in 10.0 mi Calm Calm - N/A   Clear
11:35 PM 62.6 °F 55.4 °F 77% 30.29 in 10.0 mi Calm Calm - N/A   Clear
11:36 PM 62.6 °F 55.4 °F 77% 30.29 in 10.0 mi Calm Calm - N/A   Clear
11:58 PM 62.6 °F 55.4 °F 77% 30.29 in 10.0 mi Calm Calm - N/A   Clear